Location: Eastlake (historical)
(39.0077°N, 122.6678°W)
Time: 12:30:00
(UTC+00:00)

PSLV R/B - Pass Details

Date: 25 November 2020
Orbit: 568 x 597 km, 98.2° (Epoch: 25 January)

Event Time Altitude Azimuth Distance (km) Brightness Sun altitude
Rises 13:21:37 0° 157° (SSE) 2,815 7.9 -19.8°
Reaches altitude 10° 13:23:47 10° 153° (SSE) 1,914 7.1 -19.4°
Maximum altitude 13:27:52 59° 74° (ENE) 680 4.5 -18.6°
Drops below altitude 10° 13:31:57 10° 355° (N) 1,912 6.4 -17.8°
Enters shadow 13:33:18 - 353° (N) 2,469 6.9 -17.6°
